Theta_e
311 312 315 323 325 324 325 325 325 324 326 327 327 326 324 325 326 328 328 324 320 320 320 321 321 321 321 321 321 321 321 321 322 322 322 322 323 324 324 325 324 326 326 327 329 322 313 314 319 316 313 314 314 315 315 314 316 318 326 328 325 330 328 327 327 323 323 321 318 318 320 320 319 318 318 319 320 321 321 322 323 322 324 324 327 327 324 328
314 316 313 321 326 325 325 326 326 324 326 327 327 326 324 324 325 327 329 327 323 320 320 321 321 322 322 323 323 323 323 323 323 323 322 322 323 323 324 324 325 326 327 327 329 326 315 313 317 315 314 314 314 316 317 316 315 320 327 326 329 333 325 319 320 319 320 319 317 318 319 320 320 318 318 318 318 320 321 323 325 327 329 329 329 329 325 328
317 318 318 325 326 325 326 325 326 326 326 328 327 326 324 323 322 324 328 329 327 322 320 320 322 322 323 324 325 325 325 325 325 324 323 324 324 324 324 325 326 326 327 328 326 325 320 315 315 315 314 314 314 315 317 318 317 319 321 325 332 328 319 316 316 317 320 319 317 318 319 320 319 319 319 318 317 318 320 323 327 332 334 334 333 330 327 328
317 317 317 324 325 325 325 324 325 325 326 327 327 326 325 323 321 321 324 327 330 327 322 320 321 322 323 324 325 325 325 326 326 325 324 324 324 324 325 325 326 327 327 327 323 320 320 318 316 316 315 314 313 314 316 318 318 318 319 325 328 319 317 318 315 317 319 318 318 319 319 319 319 319 318 317 317 317 318 320 324 328 330 332 333 331 328 328
317 317 313 316 324 326 324 324 325 325 327 328 327 326 325 324 321 320 321 322 325 328 326 321 320 321 323 324 325 325 325 327 326 324 325 325 325 325 325 325 326 327 326 327 322 316 318 318 317 316 313 314 314 313 315 317 318 318 318 321 320 316 318 317 315 317 317 318 319 318 318 319 318 318 318 318 319 318 318 318 318 319 321 324 328 328 328 327
315 319 314 310 318 325 325 325 325 326 328 328 328 327 325 323 321 320 320 320 319 324 327 325 321 320 321 323 323 324 325 327 323 321 324 324 326 325 325 326 326 327 326 327 323 316 317 316 316 315 312 314 314 312 314 315 317 319 319 318 316 317 317 315 315 316 317 318 318 317 318 318 317 317 318 317 318 318 317 318 318 318 317 318 320 323 325 325
314 317 318 312 312 319 325 325 324 326 327 327 328 327 325 323 321 321 320 320 319 320 325 327 324 320 320 321 322 324 325 325 320 319 321 321 326 325 325 327 326 327 325 326 324 316 316 317 315 313 313 319 316 312 314 314 315 319 319 317 316 316 316 316 315 315 318 318 318 318 318 317 317 317 318 317 317 317 317 318 318 318 318 318 319 320 320 320
313 315 318 316 311 314 323 325 323 325 326 326 327 326 325 323 321 322 321 321 321 319 321 325 325 322 321 321 322 324 324 324 322 322 321 320 325 326 326 327 324 325 322 323 324 316 316 317 315 314 316 320 316 313 314 312 314 318 318 317 315 315 315 315 315 315 317 317 318 318 316 316 317 317 317 317 316 316 317 318 318 318 318 319 319 318 318 318
314 314 317 319 316 313 319 323 323 324 326 326 327 326 325 324 323 323 322 322 322 321 320 321 325 324 322 322 322 324 324 324 323 323 323 319 324 327 327 327 324 325 322 320 321 317 316 316 315 315 315 315 313 312 312 313 316 316 316 317 315 314 314 314 315 315 316 316 317 317 315 315 316 316 316 316 316 316 316 317 318 318 319 320 319 317 317 317
313 314 316 319 319 315 317 323 324 323 325 327 327 325 324 324 323 323 322 322 321 322 320 320 324 325 324 323 323 323 324 324 323 324 322 318 324 328 327 328 325 326 323 318 319 317 316 317 315 315 313 312 312 312 312 314 317 315 315 316 314 314 314 314 314 314 315 315 316 316 315 314 315 315 316 316 315 316 316 317 319 320 319 319 319 317 316 316
312 313 315 318 319 316 315 321 325 324 324 326 326 325 324 322 323 323 322 321 321 321 320 319 322 325 326 324 323 323 324 325 323 324 321 316 323 328 327 328 326 326 322 316 318 317 316 318 315 315 314 313 311 312 312 313 314 314 315 316 314 314 314 314 314 314 315 315 315 315 314 314 314 315 316 316 316 316 316 317 319 320 320 320 320 318 316 316
310 312 314 317 319 317 315 319 325 325 324 325 325 324 322 321 321 321 321 321 320 320 320 320 321 325 326 323 323 324 324 324 324 324 319 314 322 327 326 326 326 323 318 315 318 316 316 318 315 315 315 313 312 311 312 313 313 314 316 316 315 314 315 314 313 314 315 315 315 314 315 315 315 316 316 315 316 316 316 317 318 319 319 320 321 319 316 315
310 311 313 316 319 317 314 318 324 326 325 325 323 322 321 320 320 320 320 320 320 320 320 321 323 325 324 322 323 323 322 321 323 323 316 314 321 323 323 324 322 317 313 316 319 317 317 317 315 315 315 312 312 311 312 312 313 315 315 316 316 315 316 315 313 314 314 314 315 314 317 321 318 315 315 315 316 316 315 316 317 318 318 317 318 318 317 316
310 310 312 315 319 317 314 317 323 325 324 323 322 321 321 320 320 320 320 320 321 320 320 323 324 324 323 322 322 322 321 319 321 322 315 316 320 320 321 320 316 312 312 316 318 318 317 315 315 315 314 312 311 311 312 312 313 316 315 315 318 318 319 317 313 314 315 314 314 314 318 324 321 315 314 315 316 316 316 315 315 316 317 317 317 316 316 315
309 311 312 314 319 319 315 317 323 325 324 322 322 322 321 320 320 319 319 320 320 320 322 324 323 322 321 320 320 322 321 317 318 321 316 317 319 319 319 318 315 313 313 316 317 317 317 315 314 313 313 312 312 311 311 313 314 315 315 317 318 318 321 318 312 314 316 315 313 314 317 321 319 315 314 315 316 316 315 315 315 315 316 317 318 317 315 315
309 310 312 314 320 321 316 318 324 325 323 322 321 322 321 320 319 319 320 320 320 322 323 322 321 321 320 319 319 320 320 317 317 320 317 316 317 318 318 317 317 314 312 314 316 316 315 314 313 312 312 312 312 311 311 314 316 315 315 319 320 317 318 318 314 314 314 315 313 313 317 319 316 313 313 314 315 315 315 315 315 315 316 317 318 318 317 316
308 310 313 314 319 323 319 318 323 324 322 321 322 321 320 319 319 319 320 319 320 322 320 318 318 320 320 317 317 318 319 318 316 317 317 315 315 316 317 316 315 313 311 312 313 313 313 311 311 311 312 311 312 312 312 313 315 316 313 316 320 318 316 317 317 314 313 314 315 313 315 319 316 312 313 314 314 314 314 314 315 316 316 316 317 318 318 317
307 311 314 315 318 323 322 320 322 323 322 322 322 320 320 319 319 319 319 319 319 317 316 316 317 321 321 317 316 319 321 319 315 315 315 314 314 313 315 316 314 312 311 311 311 311 311 311 311 312 312 311 311 311 312 313 316 318 315 314 317 316 316 317 318 315 314 315 315 314 314 317 317 313 312 313 313 314 314 314 315 316 316 316 316 317 317 317
308 312 315 316 318 321 323 321 321 323 322 322 322 320 320 319 318 318 318 319 316 313 315 316 317 322 323 319 317 319 322 319 315 313 313 314 314 312 312 315 314 311 310 311 312 310 310 311 311 312 312 311 311 310 312 314 315 318 318 315 315 316 315 317 317 315 314 315 315 315 314 315 316 315 313 313 313 313 314 314 314 315 316 316 316 316 316 317
310 313 315 316 317 320 322 322 322 322 322 322 320 319 319 318 318 317 317 318 317 315 316 316 319 319 319 319 316 316 319 317 314 312 312 314 313 311 311 312 311 311 311 312 313 310 310 313 312 312 312 311 311 311 312 313 313 313 315 315 315 316 315 316 317 314 312 315 315 315 315 315 315 315 313 313 313 313 313 313 313 314 315 315 316 316 316 316
311 314 316 316 317 319 322 323 322 322 322 321 319 318 318 317 318 317 316 317 317 317 316 316 319 316 316 319 316 316 317 314 313 312 311 312 312 311 311 310 310 311 310 311 312 310 311 313 312 311 311 311 311 312 312 312 312 311 314 316 315 316 317 315 315 314 312 314 316 315 315 315 315 315 313 312 312 312 312 312 313 314 314 315 316 316 316 315
314 314 315 317 318 320 322 323 323 322 321 320 318 318 317 317 317 317 316 315 315 315 314 316 319 315 316 318 317 318 316 313 314 313 312 312 311 311 310 309 310 311 310 311 311 311 310 311 312 310 310 311 312 312 312 311 312 312 315 317 317 317 317 315 314 315 313 313 317 317 315 315 316 316 312 310 311 313 314 313 313 314 314 314 315 315 315 315
315 314 316 318 319 322 323 322 322 321 320 319 318 317 317 316 317 316 316 314 314 314 313 315 318 315 315 316 316 318 316 314 315 313 312 311 310 311 310 309 310 311 311 311 312 312 311 311 311 310 309 311 312 311 311 311 312 314 315 315 318 318 317 317 315 314 313 313 315 316 316 316 316 316 314 312 312 314 314 315 314 314 314 315 315 315 315 315
314 314 318 318 319 323 323 321 322 320 319 318 317 317 316 316 316 316 315 314 314 314 312 313 316 315 314 314 315 317 315 315 315 314 312 311 311 311 310 309 310 311 310 310 312 311 312 312 310 310 310 311 312 311 311 312 312 316 317 317 320 319 317 318 316 314 313 313 314 314 316 319 317 315 316 314 313 313 313 314 313 314 315 314 315 314 314 315
314 316 319 320 321 323 322 321 321 319 319 318 316 316 315 315 316 315 315 314 313 312 311 313 315 314 314 313 314 316 315 314 315 315 313 312 311 311 310 310 310 310 310 311 312 312 312 311 310 312 312 311 312 312 313 314 313 316 319 320 320 319 319 318 317 318 315 314 316 313 315 324 325 319 315 313 313 312 312 312 312 314 315 314 315 315 314 315
315 316 319 322 322 322 321 319 318 319 318 317 316 316 315 315 315 314 314 315 314 311 311 313 313 313 314 314 314 315 315 314 314 316 315 313 312 311 311 311 310 310 310 311 312 313 312 309 310 313 313 314 314 314 316 316 313 314 317 320 320 322 323 320 318 321 318 315 315 312 314 322 323 320 318 315 313 313 312 311 311 313 315 315 315 315 315 315
317 318 320 322 322 321 320 318 317 318 317 316 316 315 315 315 314 314 314 317 315 312 312 313 313 313 314 314 314 314 315 314 313 314 314 312 312 311 311 311 311 310 310 311 313 313 312 310 311 314 315 316 314 314 316 316 314 316 318 322 324 323 325 324 321 322 322 317 316 317 316 316 316 317 320 318 315 315 313 311 311 311 313 315 315 315 316 315
319 320 321 322 321 320 319 318 318 318 317 316 316 315 315 314 314 314 315 316 316 312 312 312 312 313 314 314 314 313 314 314 314 313 312 312 312 311 311 311 311 312 311 311 314 312 311 312 314 314 315 315 314 315 318 316 315 319 322 324 324 323 327 328 323 322 319 316 320 322 316 314 320 325 324 318 316 317 317 315 314 312 313 314 315 316 316 315
320 321 321 321 321 319 318 318 318 317 316 316 315 315 315 314 315 315 315 315 313 311 312 313 312 312 313 313 313 312 313 314 314 313 312 312 312 311 311 310 310 313 312 311 316 315 311 311 312 314 315 315 318 322 322 320 316 317 321 324 325 327 328 325 325 324 317 314 323 327 318 313 321 329 325 316 316 319 320 318 314 311 314 315 315 316 316 316
322 321 321 320 320 318 318 318 317 316 316 315 315 315 314 314 314 315 316 315 312 311 312 312 312 312 312 311 311 312 313 313 313 312 312 312 312 311 312 311 310 316 320 317 319 317 310 309 311 313 313 313 317 317 315 318 315 314 320 324 322 325 328 328 331 327 316 318 328 329 321 314 315 325 324 316 318 320 317 318 315 311 313 315 315 316 316 316
321 321 320 320 319 318 317 316 316 316 315 315 315 315 314 314 314 315 315 314 313 312 311 312 312 311 311 311 311 312 312 312 311 312 312 312 312 311 311 311 311 317 322 319 318 315 310 310 311 311 309 310 316 315 313 315 315 317 325 324 317 320 328 332 329 321 316 323 327 322 318 315 315 323 325 319 320 319 316 318 318 314 314 314 315 315 315 316
320 320 320 319 318 317 317 316 316 315 314 315 315 314 314 315 315 316 314 312 313 312 311 313 313 311 310 311 312 312 312 312 311 311 312 312 312 311 311 313 313 314 315 315 317 315 313 313 313 311 309 311 317 318 314 315 318 320 322 318 316 318 321 322 322 320 320 322 319 315 315 317 316 319 320 317 317 316 314 315 316 315 314 314 314 314 314 315
320 320 319 318 317 317 317 316 315 315 314 315 314 313 314 315 316 315 312 312 313 312 312 313 313 311 310 311 311 311 312 313 311 311 312 312 312 311 313 315 314 316 316 316 318 316 317 317 314 313 311 310 315 315 314 316 317 317 316 315 320 321 315 314 319 319 319 320 316 313 314 318 318 317 318 316 314 314 312 311 314 315 315 315 314 315 315 314
319 319 318 317 317 317 316 316 315 315 314 314 313 313 315 316 316 313 311 312 312 311 312 313 312 311 311 312 311 311 314 313 311 311 312 312 312 311 313 314 313 318 319 317 316 316 318 318 315 314 311 311 314 315 316 319 316 317 319 317 320 323 319 319 321 320 320 319 315 311 315 321 320 318 318 314 310 312 313 312 314 315 315 316 315 314 314 313
318 318 317 316 316 316 316 316 315 314 314 313 312 313 315 315 314 312 311 311 311 311 312 313 312 312 312 312 311 311 314 313 311 311 312 312 312 311 312 311 311 316 317 314 314 314 315 316 316 313 310 311 315 314 315 317 316 318 320 318 319 322 327 326 322 325 326 320 316 313 318 324 320 316 315 311 310 312 311 312 314 314 315 314 314 313 312 313
317 316 316 316 316 316 316 316 314 314 314 312 313 314 315 314 314 313 311 310 311 311 312 313 313 313 312 312 312 312 314 314 312 312 312 312 311 311 312 311 311 313 313 313 314 314 313 314 315 313 310 311 312 312 313 313 316 319 317 321 323 320 326 325 316 316 318 317 319 316 317 322 318 316 317 313 314 314 311 311 311 312 314 313 312 312 311 313
316 315 315 315 316 316 316 315 314 314 313 312 313 315 314 313 314 313 311 310 310 311 312 313 313 313 312 312 312 312 314 314 312 312 312 312 311 311 311 312 311 311 312 312 313 314 315 314 313 314 314 310 308 309 310 310 314 319 317 319 321 316 321 325 317 314 313 316 321 315 314 321 318 320 324 316 315 317 314 312 309 309 312 311 311 311 311 313
315 315 315 315 316 316 315 314 314 313 312 312 314 314 312 312 313 312 311 310 311 312 312 313 313 312 312 312 311 312 314 313 312 312 312 311 313 312 311 311 311 311 311 311 312 315 319 318 312 313 314 312 311 312 312 310 310 315 316 315 318 317 318 321 318 317 316 315 319 317 315 319 318 322 325 316 317 322 317 314 312 310 310 310 311 311 311 313
314 314 314 314 315 315 314 314 313 312 311 313 315 314 312 312 313 311 310 310 311 312 312 313 312 312 312 312 311 312 313 312 311 312 312 312 313 313 311 311 312 311 309 310 315 316 318 320 316 312 312 313 314 315 317 315 310 312 313 312 317 320 319 320 318 320 321 317 321 320 316 321 324 324 324 316 317 320 316 317 316 310 309 311 311 312 311 313
313 313 313 313 314 314 314 313 312 311 312 313 314 313 312 313 314 310 310 311 311 312 312 312 312 311 311 311 312 312 313 312 311 312 313 312 312 312 311 311 313 312 309 312 317 316 314 318 318 313 311 312 315 316 317 317 313 314 315 313 315 315 316 320 319 321 324 320 322 319 316 332 337 323 318 315 316 318 316 317 316 309 309 312 311 312 312 313
312 312 313 313 314 314 313 313 312 311 312 312 313 314 313 312 313 311 310 311 311 312 313 312 311 311 311 312 312 312 312 313 311 312 314 312 311 313 312 310 312 312 312 315 318 318 317 318 318 314 313 315 318 316 315 316 315 314 314 314 315 314 316 318 316 319 320 319 324 320 317 333 335 318 317 317 315 317 312 311 313 309 310 312 311 312 312 313
311 312 312 313 314 314 313 313 312 310 312 313 312 314 314 312 312 311 311 311 313 314 313 311 312 311 312 312 312 313 313 313 312 313 315 312 312 314 313 310 312 311 312 317 319 318 318 318 317 315 315 317 317 312 308 311 315 314 314 315 315 315 317 317 317 319 317 314 321 319 314 326 328 315 315 315 310 310 308 307 311 311 312 312 312 313 313 313
311 311 312 313 313 313 313 313 312 311 312 313 312 313 314 312 312 312 312 312 314 315 313 311 312 312 313 313 313 314 313 312 313 313 315 314 312 315 312 310 312 311 312 318 319 316 316 318 318 316 314 316 319 315 309 309 314 314 314 315 315 315 316 319 323 324 320 316 316 315 313 325 331 314 306 307 307 307 307 308 310 312 312 312 313 314 313 313
312 311 312 313 313 313 313 313 312 311 312 312 313 315 314 313 313 312 313 313 314 315 312 312 312 312 314 313 313 313 313 313 314 314 316 316 312 312 311 310 313 312 312 315 316 314 317 318 317 317 316 317 320 320 314 312 313 315 317 316 316 317 315 317 320 317 318 320 319 316 314 321 333 320 307 308 310 308 306 307 309 311 311 311 312 314 314 313
312 311 311 312 312 312 313 312 311 310 311 312 314 317 316 315 314 312 313 315 315 315 314 312 313 313 314 314 313 313 313 314 315 315 317 317 314 312 311 311 312 312 312 314 312 315 322 320 316 317 317 316 317 317 316 315 314 316 319 317 316 318 314 316 319 315 317 321 318 316 315 317 326 323 314 314 315 311 309 307 308 310 310 310 311 313 314 314
312 311 311 310 310 311 311 311 310 309 311 312 314 316 316 316 315 312 313 316 315 316 318 315 314 314 314 314 314 313 313 315 317 315 316 318 318 314 311 311 311 310 312 313 310 316 323 319 314 316 315 313 315 316 316 317 315 314 317 316 316 317 316 319 323 318 318 321 318 317 316 315 317 318 316 318 317 316 313 308 307 309 310 310 311 311 314 313
311 311 311 310 311 311 310 311 311 309 310 312 313 314 315 316 316 314 314 316 315 315 318 316 314 315 314 313 314 313 313 316 318 315 316 318 317 313 310 310 310 310 312 311 310 317 322 317 315 316 314 314 319 319 316 315 314 314 315 316 316 317 317 318 318 317 318 318 316 316 316 314 314 315 318 319 318 317 313 308 308 310 309 311 311 312 314 313
310 310 310 311 312 312 311 311 311 309 309 311 312 313 314 316 316 315 315 316 314 315 317 315 314 315 314 314 314 313 314 317 316 315 316 316 314 314 312 310 309 309 312 310 310 316 319 317 316 315 315 319 322 320 316 315 315 314 315 315 315 316 317 317 315 315 317 316 313 314 316 315 313 314 317 317 314 314 312 309 310 310 309 311 312 313 314 313
310 310 310 310 312 312 311 310 310 309 310 311 312 313 314 315 315 315 317 317 316 317 317 315 315 315 314 314 314 313 314 315 315 315 314 313 313 315 315 313 309 309 310 311 312 313 314 317 317 315 316 320 322 319 317 316 315 314 315 315 314 315 316 316 315 314 315 315 314 313 315 315 314 315 316 314 311 310 310 310 310 310 309 311 313 313 313 312
309 310 310 310 310 310 310 310 310 310 309 311 312 313 313 314 314 315 317 316 316 318 316 315 316 315 315 315 314 313 314 315 316 315 313 312 313 314 315 314 312 310 310 313 313 310 312 316 316 314 315 317 319 320 318 317 316 315 316 317 315 315 315 314 314 314 313 314 314 314 315 315 313 313 313 312 312 311 310 310 311 311 310 311 313 313 313 312
309 309 309 310 310 310 310 310 310 310 309 310 312 312 312 313 314 315 315 314 315 317 316 315 316 315 314 315 315 314 313 315 316 313 311 312 312 312 314 313 311 312 313 314 314 312 315 316 313 314 316 314 316 320 319 318 318 316 318 320 317 315 314 313 313 313 313 314 314 314 315 313 312 312 312 312 312 309 310 311 311 310 310 311 312 313 313 313
309 309 309 310 311 310 309 310 310 310 309 310 310 311 312 312 313 314 314 313 313 313 314 315 315 314 315 315 315 314 312 313 314 310 309 311 310 310 312 310 309 313 314 314 315 315 317 317 314 314 316 314 314 319 320 319 317 315 316 318 316 314 313 313 313 314 313 313 314 314 312 312 314 315 313 313 312 309 310 312 311 311 311 311 312 312 313 313
Wind_Speed
41 40 39 41 45 45 47 49 49 46 44 43 42 42 39 37 37 37 36 36 35 33 31 29 28 26 25 24 23 23 22 22 20 21 22 20 19 20 20 18 15 14 13 13 13 10 6 3 13 9 6 5 5 7 4 3 5 3 2 2 2 2 3 4 5 6 7 5 9 13 13 12 7 11 16 13 15 17 13 12 11 9 9 8 8 12 19 22
41 41 40 41 45 47 47 48 49 48 45 43 43 43 41 38 37 38 38 36 36 35 32 30 29 27 25 23 22 21 20 20 20 22 24 21 20 21 20 18 15 14 14 13 13 15 12 8 12 9 8 9 4 5 4 3 6 5 2 2 4 4 3 2 2 9 8 8 13 13 12 13 11 15 17 9 12 18 12 11 13 14 13 12 15 17 19 22
43 41 39 40 46 49 50 51 50 48 46 43 42 44 43 40 38 37 39 37 36 36 35 32 30 28 25 23 21 19 18 16 18 24 24 21 21 20 18 18 16 14 14 13 13 15 17 12 11 12 4 11 4 5 4 3 4 6 3 1 5 5 2 5 3 7 12 16 18 15 13 13 14 17 15 10 13 13 10 12 13 17 20 20 20 20 20 22
41 41 40 38 43 50 52 52 51 48 46 45 42 44 45 42 39 37 38 38 37 36 36 35 31 29 26 23 21 17 15 10 16 25 22 21 22 20 19 18 17 15 14 14 13 13 17 16 13 13 3 8 7 10 5 6 4 5 5 4 4 2 2 3 4 2 14 23 22 18 13 11 16 17 15 15 11 5 12 18 16 18 23 24 24 23 22 22
39 39 46 45 41 46 51 50 50 49 46 46 42 43 46 43 41 38 37 37 36 37 37 35 34 31 27 24 21 18 13 4 11 21 20 21 23 21 21 19 18 17 15 15 15 13 16 18 16 11 1 5 7 9 5 7 6 3 4 9 5 3 1 1 2 3 12 21 20 17 10 10 17 15 16 18 9 6 14 19 17 19 21 22 23 23 23 23
42 38 45 50 42 39 48 50 49 50 47 45 42 41 45 44 42 40 38 37 35 36 36 36 35 32 29 26 21 19 15 4 2 6 9 18 23 22 22 19 19 19 18 18 16 13 17 19 16 9 2 2 5 7 10 10 7 3 5 8 4 3 2 1 0 4 11 18 16 14 12 14 15 10 16 16 9 10 16 18 18 18 18 20 21 23 24 23
44 41 41 48 46 40 44 50 50 50 49 45 43 41 43 45 43 40 40 38 36 35 35 36 34 32 31 28 23 19 19 15 8 7 2 7 19 22 21 20 20 21 20 20 18 16 20 22 17 9 2 1 3 6 14 16 7 7 4 4 2 3 3 4 2 5 11 17 14 15 16 15 13 8 12 12 8 10 13 16 20 20 19 21 21 22 23 22
45 44 41 44 48 46 44 47 49 50 50 46 43 42 43 45 43 40 40 39 37 35 33 34 33 33 32 29 26 19 21 26 19 12 7 4 15 22 22 23 21 21 20 19 20 21 23 23 21 10 3 2 6 6 14 18 7 7 5 3 1 2 2 6 5 5 10 13 13 15 14 12 11 8 10 11 9 11 9 11 19 23 23 22 21 21 21 21
44 45 42 42 47 49 44 43 48 50 49 47 44 44 44 45 43 40 39 39 38 35 33 33 32 33 31 30 27 17 23 34 26 22 16 7 16 24 24 26 25 22 19 17 21 24 24 25 25 13 6 3 10 10 15 12 3 4 6 5 4 3 1 6 7 6 7 9 13 12 7 7 10 6 7 13 13 11 9 9 17 25 26 24 21 20 20 20
43 44 44 43 45 47 42 41 48 50 49 48 45 45 45 45 43 40 39 38 37 36 33 32 32 33 32 30 25 13 24 33 27 24 16 9 19 26 26 28 28 25 19 18 22 25 25 27 27 16 9 3 8 11 14 7 5 7 4 6 6 5 2 4 5 6 6 7 11 9 5 5 8 5 4 13 16 13 11 11 16 22 24 24 21 19 19 18
42 44 45 44 44 48 44 41 49 54 52 49 46 46 45 44 43 40 38 37 36 36 33 31 32 33 33 31 25 14 19 24 24 25 15 9 21 28 29 30 27 25 21 21 23 26 27 29 29 19 8 2 5 10 12 7 12 10 5 4 3 5 3 3 4 6 6 4 8 8 4 2 4 5 6 14 19 16 15 15 17 20 21 22 21 20 20 19
44 44 46 45 44 49 48 43 47 52 49 48 47 45 43 43 42 40 38 36 35 34 32 31 31 32 31 29 29 23 16 14 17 23 13 8 20 27 26 26 24 23 22 22 25 26 27 30 30 20 11 4 4 7 7 8 14 9 5 1 0 2 1 5 5 7 5 3 8 9 4 2 2 8 11 15 21 20 18 19 19 19 19 20 20 20 20 19
46 45 47 47 45 49 49 45 47 46 45 48 46 44 43 41 40 39 37 35 34 32 31 31 31 33 31 24 27 26 15 9 11 18 13 8 19 23 21 22 22 22 20 20 24 26 28 30 27 22 16 5 5 7 9 12 11 6 3 1 1 3 2 7 7 7 4 4 9 7 1 5 6 14 15 15 23 24 21 21 22 20 20 19 19 20 20 20
47 46 49 48 47 52 50 46 49 48 47 47 45 43 41 40 39 37 37 34 32 31 29 31 32 33 30 20 21 24 15 9 13 19 16 13 22 23 21 25 24 21 19 19 21 24 29 27 21 21 15 8 9 10 11 10 5 3 2 2 2 1 3 6 6 9 4 4 9 5 2 5 6 11 14 19 24 24 22 22 23 22 21 21 20 20 19 20
49 47 50 49 50 54 50 46 51 52 50 47 44 42 41 41 39 36 35 33 31 31 31 33 34 31 26 15 16 22 19 12 16 21 18 18 26 26 24 27 25 20 20 21 21 23 28 24 18 17 12 11 12 9 5 3 3 1 3 3 1 3 4 6 4 10 5 3 6 4 2 6 6 6 12 22 24 23 22 22 22 22 23 23 23 22 21 20
52 49 52 52 53 55 51 49 53 53 50 48 45 43 42 40 38 35 32 32 31 31 33 34 34 30 19 11 14 21 22 17 17 21 20 18 23 26 25 26 25 21 20 21 24 26 27 23 18 17 13 8 8 5 2 3 3 0 3 3 2 4 3 4 3 8 5 4 4 3 2 3 5 3 13 20 23 23 21 21 21 21 23 24 24 24 24 22
56 52 54 55 54 55 54 52 56 55 50 50 49 45 44 40 38 35 32 32 31 34 38 34 32 26 12 8 16 25 28 22 18 21 22 20 19 23 26 27 25 24 23 21 22 23 22 20 15 12 11 6 4 4 3 4 3 2 1 2 4 3 4 2 3 6 7 5 4 4 2 4 6 3 12 16 19 20 20 21 22 21 22 23 24 25 25 25
59 55 56 58 55 56 58 54 56 57 53 54 52 48 45 40 38 35 33 34 35 35 32 26 25 16 7 16 24 30 35 27 21 21 23 23 19 19 25 28 27 26 23 17 16 18 16 14 11 6 6 6 4 6 5 4 4 2 3 3 4 2 4 5 3 5 8 5 5 5 3 8 8 4 11 15 16 19 20 22 22 22 23 23 24 26 26 27
61 58 59 60 56 57 60 56 55 55 57 57 55 52 46 42 38 34 34 36 35 27 18 26 33 12 6 27 32 29 35 30 22 21 24 27 22 18 23 26 28 27 20 11 10 15 13 8 8 6 5 7 6 6 5 4 5 5 5 5 5 4 3 4 3 4 6 5 5 7 6 10 9 6 8 14 16 18 20 20 21 22 23 24 24 26 27 28
62 62 62 62 59 58 59 59 57 57 59 59 61 56 45 39 26 22 33 40 44 32 17 40 47 10 1 26 31 27 33 30 24 25 24 26 25 21 23 24 24 21 14 8 5 10 12 5 5 7 6 7 7 6 6 7 9 4 2 3 6 6 4 3 3 4 1 4 5 7 7 8 8 6 9 15 15 15 18 19 21 23 24 26 27 27 27 27
65 66 64 64 62 59 60 60 60 66 63 60 65 56 48 45 23 26 43 37 47 34 10 39 44 4 2 27 32 33 34 25 23 27 23 25 27 21 20 21 16 10 8 11 8 6 9 5 5 6 6 7 7 6 7 9 11 6 2 3 5 5 4 3 3 3 1 1 4 4 5 8 8 7 10 12 11 14 22 21 23 27 26 27 28 29 28 26
68 69 66 64 62 61 64 63 63 69 66 63 62 47 50 51 33 49 52 22 35 29 5 36 41 2 10 32 33 38 36 22 19 26 25 27 28 18 16 16 9 5 6 10 8 4 5 5 6 9 9 8 7 8 8 10 10 6 2 3 3 4 3 2 3 2 2 1 3 3 3 8 9 8 9 10 13 19 27 27 26 29 29 30 30 30 29 27
70 69 64 63 63 65 69 66 66 67 66 68 58 41 45 39 29 50 43 15 23 24 5 32 39 14 21 32 34 40 36 24 23 27 28 30 27 21 19 13 6 7 6 6 7 5 4 5 8 12 12 9 7 8 10 9 8 5 3 3 2 3 4 2 3 2 2 1 1 2 2 6 7 6 7 12 19 22 25 28 28 28 28 30 31 30 31 30
70 68 64 64 64 68 72 70 69 66 66 66 49 39 41 28 27 47 33 14 12 15 9 27 34 21 23 29 35 38 31 27 31 32 32 31 26 20 19 15 9 8 7 8 10 7 4 7 13 13 10 11 9 8 9 7 5 5 5 4 3 3 4 2 2 2 3 3 1 4 4 5 5 6 7 11 17 18 20 23 26 29 30 29 29 30 32 32
70 68 64 67 67 69 74 74 73 68 64 57 40 39 39 20 26 44 28 10 6 8 8 21 25 18 22 29 31 30 23 21 31 38 37 34 29 19 14 16 12 7 9 10 9 7 6 8 13 10 8 12 9 7 8 8 5 5 5 6 6 6 4 5 5 4 4 3 2 2 1 6 5 6 9 8 8 12 15 18 24 31 33 32 32 32 33 32
71 69 66 69 71 73 73 65 65 68 61 49 41 44 41 23 29 42 23 6 3 6 9 20 21 16 23 28 28 26 17 12 25 39 39 33 32 24 13 11 8 7 10 9 5 4 3 5 8 8 9 11 9 6 7 8 6 4 5 5 7 7 7 7 7 4 2 2 3 3 4 5 6 5 8 7 6 10 12 13 21 30 33 35 37 36 34 32
71 69 71 70 72 78 69 52 56 65 54 44 45 44 37 32 39 40 17 3 4 6 10 18 18 18 23 28 33 22 8 12 21 33 40 34 28 24 15 8 5 7 10 7 4 3 3 5 5 7 8 9 9 6 5 7 7 4 4 5 8 8 8 8 7 4 2 3 3 3 4 2 5 6 8 5 6 9 9 9 15 24 31 35 38 37 35 32
71 71 74 72 75 79 69 57 60 63 52 48 49 42 38 42 42 31 11 2 7 7 9 13 16 22 24 30 32 14 11 23 17 21 38 34 24 19 12 9 9 9 10 8 6 3 4 8 8 8 7 6 7 6 6 9 6 4 5 6 7 7 8 7 6 3 1 2 2 4 2 2 5 7 6 4 4 8 9 9 12 20 29 33 35 36 34 32
74 76 77 78 78 71 64 65 64 56 51 53 49 41 44 44 32 16 4 5 6 6 12 15 15 21 23 25 22 12 20 23 11 20 35 28 22 15 9 14 14 8 4 6 7 4 2 8 10 10 8 6 6 4 5 8 4 4 4 6 5 4 5 5 5 4 3 2 4 6 2 2 5 6 4 3 3 7 8 8 10 19 28 32 35 36 35 33
77 81 80 80 75 61 57 60 55 47 50 55 50 48 48 32 16 10 6 6 5 5 14 15 15 21 22 17 10 12 17 10 11 26 26 18 19 13 11 19 16 7 3 4 5 3 2 2 4 3 4 5 5 3 1 3 6 7 6 7 7 5 5 4 3 4 3 2 6 7 4 3 3 6 4 4 5 7 7 7 8 15 23 30 34 35 34 33
77 80 81 80 71 60 58 53 47 48 53 55 51 50 40 13 3 9 9 8 7 6 11 11 11 18 21 15 9 12 10 5 15 24 15 9 12 10 11 14 9 6 3 3 3 3 4 2 1 0 2 4 6 5 5 2 5 8 5 5 5 3 4 4 4 3 2 5 6 5 3 5 4 5 4 6 6 6 7 7 8 11 17 23 28 29 28 27
78 80 82 79 69 64 63 55 53 56 55 56 53 43 26 6 1 5 6 9 8 7 11 13 13 15 19 17 10 10 7 5 13 18 12 7 5 8 8 6 7 6 5 5 3 2 4 1 2 2 1 2 5 4 4 4 3 5 5 6 5 1 3 1 2 0 3 5 4 3 1 3 5 7 8 9 10 10 10 9 9 11 12 14 17 19 19 20
81 84 80 72 64 62 61 58 61 59 55 58 51 29 12 7 8 6 6 8 7 10 14 17 18 17 19 16 9 8 7 6 11 13 12 8 5 7 5 3 8 7 5 5 4 3 1 5 3 2 2 3 4 5 3 0 1 4 6 6 5 3 3 2 3 2 3 4 3 2 2 3 3 6 11 13 16 18 15 11 11 12 13 14 15 15 15 16
82 83 74 63 60 62 60 60 62 60 57 55 39 17 8 9 9 8 8 7 7 12 13 14 18 16 15 12 9 10 7 4 10 11 9 9 7 9 7 7 8 6 6 5 4 6 4 3 3 2 1 2 3 3 5 6 3 4 5 5 6 5 4 4 3 3 4 3 3 3 1 3 3 4 8 10 14 17 12 10 10 12 14 14 14 14 14 15
81 77 67 58 56 58 60 63 62 60 59 45 21 10 12 10 9 10 9 7 8 11 13 16 18 15 11 8 7 10 6 4 8 9 9 10 10 11 9 8 9 7 7 6 4 4 6 3 4 2 1 2 3 2 3 7 3 3 3 5 4 5 5 4 3 5 5 1 1 2 2 5 4 5 9 7 7 8 7 8 8 12 15 15 15 14 13 13
75 66 59 55 55 57 61 65 62 62 57 33 11 9 12 9 9 10 9 10 13 15 17 17 15 12 10 6 6 9 6 6 9 7 7 9 9 11 9 7 8 9 9 8 3 3 6 2 5 4 3 1 1 2 0 4 3 1 3 4 5 4 7 5 2 2 4 2 3 2 3 5 3 6 10 5 4 6 6 6 8 12 15 16 17 15 12 13
64 55 51 52 55 58 64 67 63 62 49 22 9 10 9 6 6 8 8 12 17 19 19 14 11 12 12 7 9 13 9 8 10 8 6 7 7 11 11 8 11 12 10 9 3 2 6 1 5 1 1 2 2 2 2 2 3 4 4 6 3 2 4 4 2 1 2 3 4 2 4 4 2 3 7 5 4 8 7 7 9 11 13 17 18 15 13 12
55 50 46 50 59 61 66 68 62 55 36 14 11 9 3 3 5 9 13 15 18 19 16 12 9 11 14 13 12 15 13 10 10 8 8 7 5 10 13 9 10 13 12 12 6 2 6 3 4 1 2 3 4 2 1 2 1 4 3 3 4 3 2 1 2 2 2 3 4 3 4 3 3 4 5 5 6 9 8 6 7 10 15 20 20 16 14 13
52 42 31 45 61 61 66 66 56 42 21 9 11 8 4 4 4 15 24 20 17 16 13 12 11 9 12 14 12 13 13 12 12 8 7 8 4 9 16 9 7 12 14 12 7 3 5 4 2 3 2 1 3 2 5 2 2 1 1 1 2 2 4 3 3 4 3 3 4 3 2 3 5 6 5 8 9 8 8 6 6 11 17 20 19 17 16 15
48 27 18 48 63 59 64 59 42 27 13 9 9 6 7 6 4 21 35 27 14 9 10 12 13 11 10 11 12 12 10 10 13 8 5 8 5 6 15 12 8 12 14 10 6 4 3 4 3 2 3 1 1 2 6 6 3 1 2 3 2 1 2 2 1 3 4 4 3 2 2 5 6 4 6 8 8 6 7 6 8 12 15 17 18 18 17 16
40 14 15 51 61 60 63 43 21 13 7 7 6 2 7 7 6 20 34 33 16 4 8 13 13 13 11 11 12 11 9 9 12 8 3 9 7 3 12 16 12 12 10 6 6 5 2 3 5 2 1 3 4 4 4 5 4 3 4 6 5 3 4 3 3 1 2 3 4 4 3 7 6 3 5 6 5 5 4 4 7 10 11 13 15 17 17 16
27 7 23 54 60 66 57 24 10 10 5 6 5 2 7 8 9 15 22 27 16 4 9 12 10 11 11 11 11 10 9 8 11 9 3 8 9 3 11 22 22 19 12 5 4 5 4 5 5 2 3 5 6 5 3 3 2 2 3 4 4 4 4 5 6 3 1 1 2 3 3 7 6 4 4 5 6 6 4 3 5 6 7 10 13 16 18 18
18 15 36 57 62 66 45 11 8 8 1 4 2 2 5 6 10 14 14 17 12 6 9 9 9 13 10 9 12 12 10 8 9 9 4 6 8 4 13 27 27 20 12 5 4 5 5 5 4 2 1 3 5 5 2 1 1 1 4 2 3 3 1 4 5 4 4 4 2 2 5 7 5 4 5 7 8 8 6 4 5 6 8 10 12 15 18 19
26 28 38 50 58 55 28 7 12 11 5 6 3 1 3 3 8 14 14 13 9 8 10 7 10 12 8 11 14 15 15 8 6 7 4 5 8 4 15 32 30 18 11 10 10 9 4 3 4 5 2 4 5 5 4 1 1 2 3 3 4 3 2 2 2 3 2 5 5 4 6 6 5 5 5 7 6 7 9 7 7 8 9 11 13 15 16 18
28 22 25 38 49 42 15 1 9 11 9 10 8 6 5 3 4 12 16 11 5 8 9 7 10 10 8 11 11 12 14 7 5 7 2 4 5 1 9 30 32 20 14 17 19 14 6 4 5 7 6 6 5 4 4 3 2 1 3 5 7 7 7 5 2 2 3 4 5 5 7 6 5 6 6 6 4 5 8 8 9 10 10 10 13 15 15 16
19 9 10 19 26 26 9 1 6 8 8 10 8 5 6 6 3 7 14 8 3 8 8 5 11 11 9 14 12 10 12 4 4 8 5 6 4 3 4 20 24 17 13 19 25 16 4 2 6 8 10 10 7 4 5 9 8 7 8 9 8 7 8 6 4 4 5 2 3 8 10 8 6 5 6 7 5 5 7 8 10 12 11 11 13 15 14 14
14 9 12 13 12 13 6 1 6 9 10 11 8 5 9 11 5 4 6 3 5 11 7 4 12 12 13 17 14 12 12 5 6 10 7 5 3 2 5 9 10 11 13 19 23 14 4 3 7 7 6 6 6 5 8 13 13 13 11 10 9 8 8 8 7 8 5 4 6 11 9 8 8 6 7 8 6 5 7 11 14 14 13 13 14 15 15 14
9 12 21 23 16 12 12 12 15 15 15 13 7 6 11 12 11 9 3 1 6 10 6 5 13 17 19 19 13 11 10 6 7 10 6 4 4 4 5 5 4 5 9 12 13 8 4 5 6 5 3 2 6 9 10 11 10 10 11 12 11 10 11 11 13 12 9 7 13 13 10 11 9 7 10 10 8 9 11 14 13 12 14 15 16 17 17 17
9 12 17 19 10 5 9 15 18 19 17 12 6 8 14 16 14 10 3 4 6 5 5 10 14 16 20 19 14 13 13 10 9 8 4 6 7 5 4 3 3 3 6 6 4 2 4 4 4 6 4 1 7 11 10 10 8 6 9 11 10 11 14 15 17 16 13 13 16 11 9 13 9 8 9 10 12 15 12 9 9 12 16 18 18 19 19 20
14 16 16 14 5 4 10 10 10 13 10 8 6 7 13 18 17 10 4 8 12 6 5 13 16 14 16 18 16 14 17 16 12 10 9 9 7 4 4 5 3 3 5 5 2 1 2 4 3 6 5 2 5 9 10 10 9 6 7 8 9 12 13 14 15 12 8 10 13 6 7 12 7 8 10 12 14 13 8 8 12 15 17 18 19 20 22 23
17 19 23 19 6 7 13 10 10 12 8 8 7 7 12 16 18 13 3 3 12 11 9 14 16 12 11 15 15 14 16 15 15 19 21 20 17 10 5 6 8 8 5 4 4 3 3 3 2 5 6 6 5 7 8 7 7 4 6 9 13 13 12 12 12 9 8 10 11 7 10 11 5 7 11 14 12 10 11 16 18 17 16 16 19 22 25 26
15 18 26 20 7 9 15 10 10 12 11 12 10 8 11 12 12 13 7 2 2 10 17 21 17 11 9 13 15 16 19 20 22 27 26 24 23 14 10 17 20 15 9 6 4 3 5 6 4 5 7 5 2 6 7 7 6 4 10 13 15 13 10 8 8 9 12 12 9 10 12 7 4 7 10 7 6 9 15 19 20 18 17 18 20 23 27 29
Wind_Direction
235 235 236 231 226 221 215 212 213 214 214 212 210 210 207 206 208 211 213 213 211 209 208 207 206 205 205 205 207 209 212 216 219 219 220 223 221 219 220 221 230 238 239 236 225 193 127 119 184 173 17 358 314 297 266 226 201 177 120 153 239 208 202 216 211 184 152 156 177 182 175 151 130 127 124 127 135 129 129 131 129 143 139 142 150 151 166 173
229 230 234 233 224 220 217 212 211 212 213 211 210 209 207 204 207 210 212 213 212 210 209 208 206 205 204 203 205 207 212 217 221 228 228 228 230 225 223 227 236 238 235 234 225 200 160 142 180 170 14 353 310 291 259 205 183 191 133 144 226 205 216 294 182 161 142 150 168 175 178 165 153 143 138 130 131 131 119 117 130 133 131 139 148 152 167 174
227 225 226 229 221 217 216 212 210 209 209 211 211 209 207 204 205 209 211 213 213 211 209 208 206 204 203 201 202 202 209 215 224 232 227 224 228 223 222 228 235 237 231 228 221 205 181 172 180 181 309 335 315 303 274 201 190 206 172 154 239 225 280 357 57 174 168 153 158 170 176 174 166 154 151 146 144 146 143 144 141 138 142 149 156 162 170 175
227 224 223 229 223 217 215 210 209 210 209 211 211 209 209 206 205 207 210 213 213 212 210 208 207 204 202 200 200 201 202 213 234 233 223 219 223 222 225 229 234 234 223 217 214 204 187 189 192 184 258 328 306 309 276 205 212 191 166 201 254 279 288 347 17 186 172 159 161 169 164 170 174 168 162 148 142 173 178 175 177 166 161 161 164 170 175 179
225 224 222 228 225 216 214 212 211 210 206 207 208 207 209 207 204 205 208 211 212 212 210 209 208 205 202 199 199 197 191 207 249 238 230 223 223 224 226 230 232 226 212 205 203 196 180 181 182 169 59 329 307 317 270 220 217 199 222 224 256 316 216 297 11 94 162 160 157 162 156 163 169 171 170 160 156 205 193 193 202 192 184 181 177 177 180 184
224 223 220 224 227 218 211 211 210 208 204 203 205 207 208 207 203 202 206 209 210 210 209 208 207 204 202 200 199 192 187 195 206 205 231 226 220 221 221 223 222 215 208 198 194 190 176 170 161 147 83 313 312 307 279 276 228 213 272 228 240 269 200 228 311 93 156 159 151 158 156 153 155 171 180 175 181 200 200 203 207 206 205 199 189 184 186 189
224 224 220 218 224 223 211 208 209 207 206 205 204 204 205 206 203 200 203 206 208 208 207 206 204 202 200 198 197 189 197 212 182 130 29 236 210 213 213 210 208 204 200 194 190 178 176 173 152 136 101 311 313 283 286 300 249 207 264 246 236 234 198 188 153 82 150 157 152 155 150 153 153 166 185 185 187 188 196 202 206 209 202 196 193 192 194 195
224 224 223 216 217 224 217 209 210 208 206 206 202 200 203 204 202 199 200 204 207 207 206 204 200 199 198 198 192 185 206 216 214 216 282 297 196 203 204 195 195 196 192 191 192 179 176 171 156 145 99 242 268 274 293 307 278 210 233 252 213 218 199 179 167 99 133 145 149 151 147 165 165 160 183 183 167 164 174 183 193 198 193 192 196 197 198 199
224 224 224 218 213 220 221 210 209 209 204 203 199 197 200 202 201 198 199 202 204 206 205 202 198 196 197 198 189 186 217 218 220 229 252 270 190 195 201 194 192 194 191 192 195 189 178 165 166 166 122 221 274 289 294 297 261 234 231 216 164 172 183 168 173 139 125 134 150 147 126 159 171 165 187 185 167 157 165 161 174 187 189 190 194 196 197 200
224 224 223 220 212 214 220 212 209 209 203 199 199 198 198 199 199 196 197 201 202 204 204 200 195 193 194 192 180 190 227 222 225 229 245 250 188 189 201 201 200 201 198 195 196 194 184 170 173 170 134 198 266 273 283 275 278 296 228 183 154 153 168 166 179 166 143 138 151 143 109 142 165 174 202 189 177 167 170 160 167 180 186 189 191 194 197 203
225 225 222 220 214 209 217 217 207 205 203 199 197 198 197 197 197 195 194 197 201 201 201 198 192 192 194 187 179 197 223 222 227 224 237 244 192 191 199 201 205 203 198 195 194 193 188 177 171 164 149 204 263 271 280 287 305 301 163 137 127 137 154 174 165 167 159 154 160 134 109 123 144 188 215 189 184 186 182 170 171 180 185 189 189 192 198 205
226 225 221 220 215 206 212 219 205 200 201 199 197 195 195 196 195 194 192 193 198 199 196 193 190 191 189 185 191 203 209 212 222 215 224 242 199 194 197 200 202 196 194 193 190 191 188 178 171 166 157 168 304 303 295 300 310 295 179 144 342 99 123 194 165 170 172 173 170 130 110 265 211 220 219 191 188 192 187 178 176 182 187 190 192 196 201 206
226 224 221 219 214 205 208 215 207 199 197 196 195 192 191 193 193 192 190 191 194 192 188 186 186 187 182 184 200 204 201 198 203 201 211 224 192 186 188 191 188 183 188 190 186 188 184 174 170 167 159 170 301 300 299 304 307 283 227 158 134 14 300 213 176 169 171 174 177 146 175 256 240 230 219 189 185 186 185 182 180 183 188 193 198 203 206 208
226 224 220 217 213 205 204 210 208 201 196 192 190 190 189 188 189 189 187 189 189 183 181 181 179 181 180 184 200 199 195 188 187 193 202 198 178 174 179 181 179 176 177 183 187 189 180 168 163 167 176 227 277 290 299 305 299 234 224 200 149 70 266 246 175 156 149 194 188 148 192 249 263 249 219 189 184 184 185 187 188 189 191 196 201 206 210 211
225 223 219 216 211 205 201 205 203 197 194 190 186 185 184 183 182 181 183 186 183 178 175 174 174 174 176 185 197 195 196 194 189 192 196 187 176 173 175 178 182 179 176 178 176 174 171 165 165 179 200 233 253 279 298 305 305 195 191 241 181 154 260 303 192 169 153 194 193 147 193 255 280 260 200 188 187 188 190 193 197 198 197 199 202 207 212 214
223 220 217 213 209 203 199 201 201 195 190 187 183 180 179 178 173 173 181 180 176 175 170 167 170 170 170 181 189 192 197 196 190 191 194 188 181 178 174 180 188 185 179 175 167 164 169 172 178 193 206 215 225 249 292 304 307 254 162 223 204 168 230 315 235 203 169 142 194 194 194 250 280 214 176 183 189 193 194 196 201 203 202 202 205 210 213 214
221 218 214 210 206 200 194 198 201 197 192 185 179 176 173 170 166 167 174 175 172 170 165 163 167 167 169 179 180 189 193 190 188 189 190 190 188 185 181 184 188 184 177 171 170 172 176 180 183 195 206 208 195 186 228 256 266 304 114 198 232 181 179 228 278 228 177 149 196 203 205 246 273 209 175 183 187 191 194 196 202 205 205 207 210 214 216 216
218 215 209 206 205 197 190 194 196 192 188 182 175 171 168 164 161 161 164 167 163 160 158 158 161 161 193 200 189 190 190 185 183 184 184 185 188 192 189 186 185 180 172 168 168 168 170 180 180 178 194 198 197 184 198 210 193 203 165 187 254 236 185 199 238 213 172 167 198 176 220 258 271 248 197 194 190 194 198 197 201 206 208 211 213 216 219 220
214 211 204 203 203 197 190 190 193 188 178 173 169 162 157 153 152 155 161 163 157 156 164 169 170 168 216 199 192 187 186 180 173 177 179 180 181 189 192 188 181 171 167 172 171 168 165 166 179 185 191 194 206 195 181 206 204 192 180 183 209 224 232 217 240 235 166 164 206 186 206 240 247 248 221 209 201 205 210 205 204 206 210 213 214 219 221 224
211 206 200 200 200 197 191 187 191 188 172 163 157 150 145 144 138 145 160 170 172 168 175 177 174 171 175 180 177 173 177 176 173 174 178 180 173 172 180 177 171 167 167 165 164 175 168 161 197 197 194 193 206 193 169 220 243 241 217 205 209 215 242 257 276 291 155 157 214 208 214 242 243 243 239 222 208 212 220 216 212 209 210 213 214 219 223 227
206 201 197 198 198 196 191 183 183 183 174 164 156 151 152 153 154 164 162 175 184 173 166 180 173 118 119 167 169 168 164 166 172 172 176 177 167 159 167 165 158 171 176 153 143 161 168 188 214 194 194 191 199 198 180 221 244 261 262 220 234 223 221 268 278 293 349 149 244 240 229 258 256 243 245 223 198 216 222 216 216 214 212 214 216 219 224 230
199 197 195 195 195 194 188 180 176 175 172 166 163 162 161 159 168 173 162 160 183 173 134 179 177 179 169 167 173 170 158 150 161 169 171 168 164 160 161 162 155 167 167 148 139 142 175 215 211 191 198 195 196 198 197 224 234 253 250 173 230 225 185 298 316 337 24 136 274 321 233 252 259 251 247 215 200 222 226 221 221 218 214 215 217 220 224 228
193 192 192 192 191 187 182 178 174 170 167 166 168 169 164 160 168 166 152 113 170 182 168 177 184 187 161 162 169 168 158 155 163 173 173 166 169 170 159 157 156 155 159 158 155 157 185 221 209 198 198 200 210 202 202 223 229 241 226 151 224 207 153 235 286 344 31 113 198 23 313 268 272 273 267 230 222 230 233 229 228 224 221 223 223 223 224 226
188 187 189 191 188 180 177 175 173 170 168 168 169 169 164 164 168 159 141 88 155 196 205 179 183 178 158 158 166 166 161 164 169 173 176 172 171 168 159 157 151 155 174 170 161 167 187 199 196 196 199 203 212 208 203 210 223 238 212 168 200 190 164 184 168 106 18 0 81 60 356 299 265 255 262 243 231 234 235 230 228 227 228 232 232 230 230 230
184 185 185 185 182 176 172 168 168 170 169 168 167 168 167 161 164 159 140 86 141 187 192 179 181 177 159 156 165 166 155 162 173 172 177 179 172 162 160 164 159 167 180 164 152 173 204 195 185 187 199 203 208 212 200 190 202 245 226 187 182 176 148 124 120 94 46 335 292 88 13 289 285 256 249 247 239 240 234 223 223 226 229 231 233 235 235 235
181 183 181 176 173 171 168 163 164 166 165 167 168 168 169 154 152 156 139 75 173 166 158 171 178 175 162 159 163 160 148 164 178 174 177 182 176 166 158 166 166 171 169 157 152 184 207 182 178 185 188 193 205 216 204 181 176 230 243 189 152 135 122 132 139 110 110 242 288 102 162 261 312 292 254 245 244 250 237 224 226 227 228 230 233 237 237 235
180 181 178 174 169 167 166 162 162 164 164 167 167 166 165 149 147 152 136 57 190 155 150 167 173 171 169 166 162 157 152 163 168 175 177 177 177 171 165 167 155 166 163 146 175 215 154 155 187 196 181 186 198 209 211 173 159 218 236 148 127 128 138 152 142 120 175 210 330 38 135 221 293 273 267 253 239 260 254 239 238 230 229 232 235 237 237 235
179 178 176 174 171 169 169 164 162 167 171 168 163 163 158 149 150 151 136 168 168 137 149 163 165 167 170 170 166 155 140 150 153 183 180 174 175 173 172 175 155 165 172 157 187 237 139 167 192 184 176 195 197 199 192 161 150 234 213 142 137 145 146 143 126 109 76 113 297 306 133 177 270 273 296 301 251 272 265 241 239 232 230 233 235 236 235 234
178 177 175 174 171 170 170 167 164 167 170 166 160 158 155 152 151 145 149 189 144 126 152 154 159 165 167 171 172 148 142 151 156 177 178 177 180 176 172 178 159 143 165 155 174 208 186 189 192 180 184 200 190 192 185 167 165 203 162 103 88 87 100 106 112 111 61 71 240 257 197 183 272 283 303 321 269 260 257 246 241 235 232 232 234 234 233 231
175 174 174 171 167 166 167 165 164 163 164 165 159 155 156 156 148 149 196 189 128 145 157 152 163 166 161 161 166 151 150 151 140 158 173 181 178 172 157 169 159 115 57 62 128 202 284 196 188 176 185 175 149 107 69 176 157 135 104 72 60 37 46 59 63 96 87 274 247 243 212 173 265 281 249 229 235 229 235 256 256 244 238 234 234 235 235 233
174 172 172 170 167 167 164 159 161 164 163 162 158 155 156 153 136 167 180 152 123 152 152 148 163 161 160 161 161 161 153 119 138 151 170 178 170 166 146 161 161 115 98 81 88 330 5 89 196 34 153 129 109 74 23 42 130 113 100 97 85 19 17 24 3 59 142 250 258 255 205 165 219 264 245 240 263 249 224 235 250 248 245 239 235 236 236 234
175 172 171 169 168 170 167 161 163 164 161 161 159 155 152 133 201 182 154 144 147 171 161 159 166 162 166 166 156 156 139 128 156 157 163 161 169 181 162 167 169 146 166 168 134 14 18 290 280 16 248 170 122 107 26 13 44 89 119 124 116 64 30 25 287 220 218 244 260 281 234 192 226 251 260 267 276 265 237 232 245 239 231 226 221 221 220 220
174 172 170 167 165 169 169 164 163 162 160 161 158 154 151 157 181 171 149 168 173 172 166 163 166 164 166 163 148 151 137 141 167 160 158 151 153 195 215 207 168 145 167 172 123 103 349 304 312 35 288 236 158 149 149 139 66 127 145 141 143 132 101 202 245 259 255 261 270 289 278 255 270 260 250 248 254 259 255 252 251 231 212 202 200 203 208 214
171 167 165 164 164 168 167 163 163 161 160 161 156 153 167 168 176 165 162 181 161 158 161 155 156 156 161 163 156 157 135 133 166 154 151 154 159 194 219 212 181 128 116 150 150 159 170 260 250 181 206 218 186 174 159 150 146 177 172 143 158 164 149 187 209 198 224 268 290 297 268 200 202 247 241 241 260 266 256 244 238 221 210 203 201 207 214 222
166 163 161 161 163 166 166 165 164 161 161 162 156 157 170 169 176 172 167 166 144 147 150 146 147 149 162 166 161 165 143 139 168 153 158 174 177 189 195 197 186 143 133 162 182 164 156 206 268 287 311 167 181 227 140 124 134 236 165 126 176 187 144 146 180 178 173 148 274 252 234 211 206 272 274 264 268 260 222 212 205 193 196 197 202 209 215 224
160 158 158 160 162 164 166 164 161 162 163 163 160 173 177 180 178 169 162 157 152 149 145 146 150 152 162 159 163 175 155 141 165 164 176 183 186 194 192 188 181 164 157 160 158 149 148 219 314 345 347 25 153 269 291 135 173 190 134 174 216 171 118 121 182 152 116 157 248 205 235 284 311 294 290 286 258 254 234 223 208 192 191 197 204 209 215 225
154 154 155 159 162 164 165 163 161 164 165 164 178 181 176 179 160 141 138 141 145 145 143 150 162 161 162 162 175 178 157 143 166 171 174 176 190 198 194 194 185 176 167 152 154 187 146 150 318 24 178 285 328 316 343 46 133 129 161 205 202 124 104 115 149 56 91 209 263 197 208 275 309 267 308 344 289 268 261 245 236 220 210 212 213 213 220 225
148 149 149 157 163 165 165 164 164 165 166 174 186 176 147 164 142 125 131 137 143 148 148 156 167 170 171 170 175 176 162 160 175 172 167 177 209 193 183 194 189 179 171 152 150 196 133 112 307 314 200 269 348 47 159 340 27 151 188 188 132 150 201 128 151 175 172 216 265 277 235 245 207 221 296 303 251 253 254 243 241 231 223 222 220 215 218 219
143 140 142 156 163 166 166 165 165 165 170 191 183 171 163 186 157 138 143 145 148 152 155 161 163 171 180 170 162 170 170 168 171 170 171 183 219 190 177 181 184 179 177 161 155 187 133 122 244 282 277 256 9 59 176 224 309 39 37 75 88 144 177 174 165 162 165 204 242 289 307 261 229 213 229 241 241 248 251 241 232 230 227 227 222 215 214 214
142 132 139 156 160 166 166 163 164 168 185 195 174 171 174 178 148 145 149 151 152 159 163 163 161 160 170 167 157 164 171 165 167 175 183 175 187 198 182 176 169 175 175 162 153 163 125 108 168 279 329 148 177 215 184 183 185 135 127 175 196 83 132 161 175 141 135 166 199 226 265 266 252 209 206 238 253 249 235 228 234 238 236 234 227 217 215 212
142 123 145 157 159 162 160 157 166 181 195 176 157 168 171 158 138 150 154 155 154 164 159 158 162 158 156 160 160 163 162 157 169 177 176 172 172 200 188 175 160 161 162 149 154 164 125 103 136 159 203 179 228 242 194 188 192 168 176 187 184 156 123 148 222 234 123 158 175 175 237 266 256 211 206 233 256 257 245 234 242 243 239 236 225 216 216 211
141 116 151 158 161 161 157 156 182 183 179 169 159 152 158 145 145 155 156 155 154 139 146 154 158 154 154 158 157 160 156 155 175 177 163 178 176 175 182 171 160 158 160 156 171 153 106 104 117 136 194 204 251 258 206 205 216 177 209 201 181 171 130 151 203 223 146 203 151 146 233 265 257 230 223 239 260 272 283 269 247 234 219 221 219 214 214 209
127 122 151 161 165 163 160 157 170 168 223 188 147 59 143 142 151 155 154 157 157 140 146 158 159 158 164 159 152 158 159 157 180 175 132 158 178 175 170 165 159 159 162 162 175 148 103 97 102 76 307 297 304 306 324 50 98 200 232 181 159 211 147 148 184 169 169 198 155 172 249 265 268 261 247 254 266 268 264 248 232 222 208 209 214 215 213 210
121 125 146 161 168 168 166 164 167 174 193 168 145 129 150 134 153 159 161 162 160 150 151 159 163 161 161 158 158 165 164 161 183 178 127 148 178 177 165 165 163 164 176 180 178 169 142 125 121 105 51 353 346 332 313 273 149 207 232 176 170 196 124 117 152 105 197 212 161 177 241 251 268 293 277 266 276 272 258 236 218 222 216 210 210 212 214 212
125 125 141 158 169 174 176 155 166 171 171 161 165 177 150 106 157 162 160 158 144 141 143 148 151 137 127 145 152 163 167 160 165 175 139 132 163 13 167 172 171 172 185 180 168 160 150 157 153 139 153 180 197 221 223 194 166 210 212 185 187 185 166 166 141 119 231 230 153 182 237 247 275 309 298 282 295 285 261 236 219 220 218 215 211 209 213 213
136 125 132 147 169 184 192 49 142 157 169 163 163 175 148 131 143 149 150 156 143 131 125 130 135 120 130 148 144 164 177 150 123 163 156 144 167 340 167 176 175 168 169 165 157 149 118 173 186 178 183 185 182 184 147 131 151 199 202 185 187 188 174 156 132 174 201 178 173 222 235 235 249 271 274 274 275 267 263 247 231 223 216 215 212 209 212 213
146 145 157 147 159 190 214 258 163 171 184 176 164 172 159 149 147 136 138 161 160 139 114 124 147 145 157 156 150 167 172 126 119 154 148 141 158 49 114 146 156 152 149 154 156 146 105 201 201 187 192 182 146 146 143 143 170 197 191 184 190 184 166 160 192 208 162 124 236 240 231 228 232 232 246 260 258 248 251 245 237 229 220 213 208 206 206 204
158 157 171 165 156 177 194 193 188 183 183 180 163 147 152 151 156 160 141 63 152 148 120 149 169 166 162 158 153 160 158 134 149 159 143 131 135 97 82 65 68 129 140 148 157 142 119 195 200 158 164 175 134 147 158 158 177 190 183 191 191 177 174 183 209 213 166 177 234 234 225 234 230 220 233 237 229 231 240 244 243 236 226 214 202 199 197 195
151 145 169 175 168 164 164 169 176 176 177 176 160 153 160 161 162 160 127 107 151 175 155 162 175 167 160 159 151 156 167 165 163 165 139 133 140 118 99 94 62 92 118 129 146 123 130 186 191 140 138 155 142 154 166 162 164 177 188 195 186 182 193 198 211 216 195 210 237 236 246 254 232 209 230 234 238 246 254 257 247 232 223 212 200 198 195 193
153 155 167 174 175 102 105 115 148 167 179 177 172 175 167 164 163 157 139 147 160 186 176 162 166 161 159 162 158 171 183 170 157 161 146 134 149 152 145 164 160 98 109 125 127 63 126 181 179 125 127 199 175 163 168 164 160 169 188 193 184 191 207 213 222 224 207 235 255 268 288 274 229 187 220 235 241 247 247 239 233 226 219 209 202 202 200 196
158 168 172 167 153 136 139 143 160 167 184 192 187 182 172 172 166 152 116 156 163 169 167 154 152 147 153 166 170 177 176 158 151 162 160 156 163 168 162 166 157 137 129 150 153 122 112 161 156 113 147 222 215 161 156 137 121 145 201 201 190 192 206 215 220 212 195 227 251 257 262 260 203 170 218 230 226 220 216 222 226 225 219 215 213 211 207 202
147 156 164 156 125 147 158 159 166 172 187 192 186 177 170 172 166 151 134 33 132 158 158 150 144 144 158 175 182 178 167 159 159 162 161 159 158 153 144 154 156 152 154 160 153 142 142 151 158 147 166 228 254 133 122 89 93 216 227 202 190 194 200 206 222 221 209 211 221 231 242 242 152 182 224 223 196 214 228 230 233 235 230 228 227 221 217 210